Regional Weather Roundup
Issued by NWS Jackson, KY

Home | Current Version | Previous Version | Text Only | Print | Product List | Glossary Off
Versions: 1 2 3 4 5 6 7 8 9 10 11 12 13 14 15 16 17 18 19 20 21 22 23 24 25 26 27 28 29 30 31 32 33 34 35 36 37 38 39 40 41 42 43 44 45 46 47 48 49 50

982
ASUS43 KJKL 212010
RWRJKL

EAST KENTUCKY HOURLY WEATHER ROUNDUP
NATIONAL WEATHER SERVICE JACKSON KY
400 PM EDT MON AUG 21 2017

NOTE: "FAIR" INDICATES FEW OR NO CLOUDS BELOW 12,000 FEET WITH
NO SIGNIFICANT WEATHER AND/OR OBSTRUCTIONS TO VISIBILITY.

* THESE REPORTS ARE NOT UNDER NWS QUALITY CONTROL AND MAY NOT
  REPORT WEATHER SUCH AS PRECIPITATION AND FOG.

KYZ079-080-083-085-087-088-110-112-115-119-120-212100
...EASTERN KENTUCKY...

CITY           SKY/WX    TMP DP  RH WIND       PRES   REMARKS
JACKSON        MOSUNNY   86  70  58 CALM      30.19F HX  90
LONDON         MOSUNNY   87  66  49 CALM      30.18F
SOMERSET*      MOSUNNY   86  68  54 W6        30.17F
WILLIAMSBURG*  PTCLDY    86  68  54 SW3       30.17F
MIDDLESBORO*   SUNNY     87  70  57 CALM      30.18F HX  91
HARLAN APT*    PTCLDY    84  68  58 CALM      30.21F
PIKE CO APT*     N/A     85  70  61 CALM      30.20F
BIG SANDY APT* CLEAR     87  68  53 CALM      30.18F HX  91
MOREHEAD APT*  CLEAR     86  68  54 S6        30.18S
$$

KYZ035-036-041-042-044-050-067-078-099-212100
...CENTRAL KENTUCKY...

CITY           SKY/WX    TMP DP  RH WIND       PRES   REMARKS
MT STERLING*   SUNNY     88  70  55 S7        30.18S HX  92
FLEMING/MASON* SUNNY     89  68  50 S9        30.16F HX  93
DANVILLE*      SUNNY     88  70  55 S7        30.17F HX  92
LEXINGTON      SUNNY     89  64  43 SW10      30.15F HX  90
FRANKFORT      SUNNY     90  67  46 S8        30.13S HX  93
LOUISVILLE     MOSUNNY   92  68  45 SW13      30.10F HX  96
LEBANON*         N/A     88  68  51 S8        30.14F HX  91
GLASGOW*       SUNNY     91  67  45 S6        30.13F HX  94
BOWLING GREEN  SUNNY     92  65  40 VRB3      30.12F HX  94
$$

KYZ091>093-OHZ055-061-077-WVZ005-015-034-035-042-212100
...SOUTHERN OHIO/WEST VIRGINIA...

CITY           SKY/WX    TMP DP  RH WIND       PRES   REMARKS
COVINGTON      PTSUNNY   89  70  53 SW8       30.12F HX  94
COLUMBUS       CLOUDY    88  71  57 S10       30.10F HX  94
DAYTON         CLOUDY    87  67  51 SW13      30.11F HX  90
WILMINGTON     SUNNY     87  72  60 S14       30.12F HX  93
HUNTINGTON     SUNNY     88  67  49 S8        30.15F HX  91
CHARLESTON     MOSUNNY   88  66  48 SW7       30.16F HX  90
PINEVILLE*     SUNNY     86  70  58 MISG      30.26F HX  90
BECKLEY        MOSUNNY   84  65  52 N5        30.26F
BLUEFIELD      SUNNY     81  62  52 N5        30.29F
LOGAN CO APT*    N/A     84  70  61 CALM      30.21S
$$

VAZ002-007-008-TNZ017-027-036-066-071-212100
...SOUTHWEST VIRGINIA/EAST TENNESSEE...

CITY           SKY/WX    TMP DP  RH WIND       PRES   REMARKS
WISE*          SUNNY     81  64  57 SW6       30.29F
JONESVILLE*      N/A     86  68  54 CALM      30.21F
ABINGDON*      SUNNY     87  67  52 SW6       30.24F
BRISTOL        MOSUNNY   87  67  51 CALM      30.20F HX  90
MORRISTOWN*    CLEAR     88  68  51 CALM      30.17F HX  91
SEVIERVILLE*   CLEAR     90  61  37 NE5       30.16F
KNOXVILLE      MOSUNNY   89  66  46 N6        30.15F HX  91
LAFOLLETTE*    CLEAR     88  70  55 SW5       30.20F HX  92
OAK RIDGE      SUNNY     89  68  49 SE3       30.17F HX  93
CROSSVILLE     PTSUNNY   82  68  62 VRB3      30.22F
NASHVILLE      MOSUNNY   93  69  45 VRB6      30.12F HX  98
$$

...KEY TO REMARKS...
VSB - VISIBILITY IN MILES
WCI - WIND CHILL INDEX
HX  - HEAT INDEX

$$




USA.gov is the U.S. government's official web portal to all federal, state and local government web resources and services.